This is the latest recevied weather packets stored in our database for station/object OK1FET-4. If no packets are shown the sender has not sent any weather packets the latest 10 day(s).
| Time | Temp. | Humidity | Pressure | Rain* | Wind** | Luminosity | Snow |
|---|---|---|---|---|---|---|---|
| 1777659325 | 18.33° C | 39% | 1026.1 hPa | - | - | - | - |
| 1777659024 | 18.89° C | 39% | 1026 hPa | - | - | - | - |
| 1777658723 | 19.44° C | 39% | 1026 hPa | - | - | - | - |
| 1777658423 | 19.44° C | 38% | 1026 hPa | - | - | - | - |
| 1777658122 | 20° C | 38% | 1026 hPa | - | - | - | - |
| 1777657821 | 20° C | 38% | 1026 hPa | - | - | - | - |
| 1777657520 | 20.56° C | 37% | 1025.9 hPa | - | - | - | - |
| 1777657219 | 20.56° C | 36% | 1025.9 hPa | - | - | - | - |
| 1777656917 | 21.11° C | 36% | 1025.9 hPa | - | - | - | - |
| 1777656616 | 21.11° C | 35% | 1025.8 hPa | - | - | - | - |
| 1777656315 | 21.67° C | 35% | 1025.9 hPa | - | - | - | - |
| 1777656014 | 22.22° C | 34% | 1025.8 hPa | - | - | - | - |
| 1777655713 | 22.22° C | 34% | 1025.8 hPa | - | - | - | - |
| 1777655412 | 22.22° C | 34% | 1025.8 hPa | - | - | - | - |
| 1777655110 | 22.78° C | 33% | 1025.9 hPa | - | - | - | - |
| 1777654809 | 22.78° C | 33% | 1026 hPa | - | - | - | - |
| 1777654508 | 22.22° C | 34% | 1026 hPa | - | - | - | - |
| 1777654207 | 22.22° C | 34% | 1026 hPa | - | - | - | - |
| 1777653906 | 22.22° C | 33% | 1026 hPa | - | - | - | - |
| 1777653605 | 22.78° C | 33% | 1026 hPa | - | - | - | - |
| 1777653303 | 22.22° C | 33% | 1026 hPa | - | - | - | - |
| 1777653002 | 22.78° C | 33% | 1026 hPa | - | - | - | - |
| 1777652701 | 22.78° C | 32% | 1026.1 hPa | - | - | - | - |
| 1777652400 | 22.78° C | 32% | 1026.1 hPa | - | - | - | - |
| 1777652098 | 23.33° C | 32% | 1026.3 hPa | - | - | - | - |
* Rain since midnight (hover to see other rain measurements)
** Current wind speed in m/s (hover to see current wind gust speed)